Regional Weather Roundup
Issued by NWS

Home | Current Version | Previous Version | Text Only | Print | Product List | Glossary Off
Versions: 1 2 3 4 5 6 7 8 9 10 11 12 13 14 15 16 17 18 19 20 21 22 23 24 25 26 27 28 29 30 31 32 33 34 35 36 37 38 39 40 41 42 43 44 45 46 47 48 49 50

362
ASUS43 KMPX 240201
RWRMN
WEATHER ROUNDUP FOR MINNESOTA
NATIONAL WEATHER SERVICE TWIN CITIES/CHANHASSEN MN
900 PM CDT MON OCT 23 2017


NOTE: "FAIR" INDICATES FEW OR NO CLOUDS BELOW 12,000 FEET WITH NO
SIGNIFICANT WEATHER AND/OR OBSTRUCTIONS TO VISIBILITY. N/A MEANS
CURRENT SKY AND/OR WEATHER CONDITIONS ARE NOT AVAILABLE.

MNZ060>063-068>070-240300-
   Twin Cities Metro

CITY           SKY/WX    TMP DP  RH WIND       PRES   REMARKS
TWIN CITIES    CLOUDY    49  29  46 N22G30    29.85F
ST PAUL        CLOUDY    49  30  48 NW18G26   29.85F
CRYSTAL        CLOUDY    49  24  37 NW21G29   29.85S
BLAINE         CLOUDY    50  30  46 NW16      29.84F
LAKEVILLE      CLOUDY    48  28  46 NW17G25   29.84S
EDEN PRAIRIE   CLOUDY    50  30  46 N15G26    29.84F
SOUTH ST PAUL  CLOUDY    49  29  45 N17G24    29.84S
LAKE ELMO      CLOUDY    46  32  57 N20G29    29.84S
$$
MNZ001>005-007-008-013>017-022>024-027-028-240300-
   Northwest Minnesota

CITY           SKY/WX    TMP DP  RH WIND       PRES   REMARKS
BEMIDJI        CLOUDY    39  27  62 NW17G24   29.98S
HALLOCK        CLEAR     39  28  65 N17       30.13R
ROSEAU         MOCLDY    43  32  65 N28G38    30.06R
WARROAD        CLOUDY    41  34  75 NW15G22   30.05R
CROOKSTON      CLOUDY    39  28  65 N22G30    30.11R
FOSSTON        CLOUDY    37  27  65 NW18G24   30.05S
DETROIT LAKES  CLEAR     37  30  75 N17G28    30.04R
MOORHEAD       CLEAR     39  28  65 N18G24    30.09R
PARK RAPIDS    CLOUDY    40  28  62 N22G33    29.97R
MAHNOMEN       CLOUDY    37  28  67 N17G23    30.05R
$$
MNZ006-009>011-018-025>026-240300-
   North Central Minnesota

CITY           SKY/WX    TMP DP  RH WIND       PRES   REMARKS
BAUDETTE       CLOUDY    42  36  79 NW16G26   29.99R
FLAG ISLAND    CLOUDY    41  34  75 N25G32    30.03R
INTL FALLS     CLOUDY    41  31  67 N18       29.93R
WASKISH        CLOUDY    43  34  70 N12G24    29.98R
BIG FORK       CLOUDY    43  34  70 NW9G20    29.92S
LONGVILLE      MOCLDY    41  28  60 NW9G21    29.93S
GRAND RAPIDS   CLOUDY    42  31  64 NW17G31   29.91S
CRANE LAKE     CLOUDY    39  36  87 N12G21    29.89S
ORR            CLOUDY    41  32  70 NW12G20   29.86S
COOK           CLOUDY    41  36  81 NW7       29.87S
WALKER         CLOUDY    38  27  62 NW12G22   29.96S
$$
MNZ012-019>021-037-240300-
   Northeast Minnesota

CITY           SKY/WX    TMP DP  RH WIND       PRES   REMARKS
DULUTH         CLOUDY    42  36  79 N18G31    29.79S
ELY            CLOUDY    39  36  87 NW13G22   29.82S
HIBBING        CLOUDY    41  33  73 NW16G31   29.86R
EVELETH        MOCLDY    42  38  83 N8        29.86S
DULUTH HARBOR  CLOUDY    46  39  76 NW16G31   29.81S
TWO HARBORS    PTCLDY    48  39  71 NW8G22    29.74F
SILVER BAY     CLOUDY    46  39  76 NW12G20   29.74S
GRAND MARAIS     N/A     50  42  74 NW17G32   29.68R
G MARAIS ARPRT CLOUDY    43  37  81 NW12G20   29.72R
$$
MNZ029>031-032-039>041-046>048-054>057-064-240300-
   West Central Minnesota

CITY           SKY/WX    TMP DP  RH WIND       PRES   REMARKS
FERGUS FALLS   CLEAR     43  28  56 N18G29    30.04R
WHEATON        PTCLDY    48  30  49 NW18G30   30.05R
MORRIS         CLOUDY    48  34  57 N13G18    29.98S
ALEXANDRIA     CLEAR     44  31  60 N22G29    29.98R
ELBOW LAKE     FAIR      44  33  65 NW17      30.01R
WADENA         CLEAR     39  27  60 NW18G28   29.96S
GLENWOOD       CLEAR     43  32  65 NW12G18   29.97R
APPLETON       CLOUDY    52  34  50 NW14G22   29.98S
BENSON         CLOUDY    46  34  61 N10       29.99R
ORTONVILLE     CLOUDY    50  34  53 N16G24    30.01R
MADISON        PTCLDY    52  37  58 NW16G29   30.00R
WILLMAR        FAIR      46  34  61 NW13      29.96S
$$
MNZ033>034-036-042>043-049>051-058-059-240300-
   Central Minnesota

CITY           SKY/WX    TMP DP  RH WIND       PRES   REMARKS
ST CLOUD       CLEAR     44  29  55 NW13      29.90R
SAUK CENTRE    FAIR      44  30  59 NW16G23   29.94S
PAYNESVILLE    CLEAR     45  30  55 NW13G21   29.94R
AITKIN         CLOUDY    43  28  56 NW16G23   29.89R
PINE RIVER     CLEAR     39  27  60 NW14G22   29.97R
BRAINERD       CLEAR     43  27  53 NW16G26   29.93R
STAPLES        CLEAR     39  27  60 NW16      29.94S
LONG PRAIRIE   FAIR      41  30  65 W15G23    29.94S
LITTLE FALLS   CLEAR     43  23  45 NW9       29.93R
LITCHFIELD     CLEAR     46  28  49 NW17      29.92S
BUFFALO        PTCLDY    46  28  49 NW12G18   29.89S
MAPLE LAKE     CLEAR     46  32  57 NW12G18   29.90S
HUTCHINSON     CLEAR     48  31  52 NW14G22   29.92S
$$
MNZ037-044-045-052-053-240300-
   East Central Minnesota

CITY           SKY/WX    TMP DP  RH WIND       PRES   REMARKS
PRINCETON      CLOUDY    48  27  43 NW13G22   29.88R
MORA           CLOUDY    45  30  57 N15G24    29.87S
CAMBRIDGE      CLOUDY    50  34  53 NW14      29.85S
RUSH CITY      CLOUDY    46  33  60 NW14      29.85S
MOOSE LAKE     CLOUDY    45  32  61 N20G28    29.83S
HINCKLEY       CLOUDY    46  34  61 NW18G26   29.84S
CLOQUET        CLOUDY    45  32  61 NW20G30   29.82S
MCGREGOR       CLOUDY    43  34  70 NW10      29.88S
$$
MNZ071>073-080-081-089-090-097-098-240300-
   Southwest Minnesota

CITY           SKY/WX    TMP DP  RH WIND       PRES   REMARKS
MONTEVIDEO     MOCLDY    48  36  61 N15G24    29.97S
GRANITE FALLS  PTCLDY    50  36  59 NW13G18   29.98S
CANBY          CLOUDY    50  36  57 W22G29    30.02S
MARSHALL       CLOUDY    50  35  56 NW25G32   29.97F
REDWOOD FALLS  CLEAR     49  30  48 NW9       29.94S
OLIVIA         CLEAR     45  32  61 NW12      29.93S
PIPESTONE      MOCLDY    48  34  57 N23G31    30.01R
WORTHINGTON    CLEAR     45  33  63 NW16      29.98S
JACKSON        PTCLDY    46  32  57 NW14G21   29.95S
TRACY          PTCLDY    49  35  60 NW15G21   29.97S
SLAYTON        CLEAR     45  33  62 NW15      29.99S
$$
MNZ065>067-074>077-082>085-091>093-240300-
   South Central Minnesota

CITY           SKY/WX    TMP DP  RH WIND       PRES   REMARKS
NEW ULM          N/A     48  30  49 NW17G25   29.91S
ST JAMES       PTCLDY    46  30  53 NW13      29.93S
FAIRMONT       PTCLDY    48  31  51 NW18      29.92R
GLENCOE        CLOUDY    49  28  43 NW17G28   29.89S
FARIBAULT      CLOUDY    48  32  53 NW12G20   29.85S
OWATONNA       CLOUDY    48  34  57 NW14G24   29.85S
WASECA         CLOUDY    50  32  50 NW14G24   29.87F
$$
MNZ078>079-086>088-094>096-240300-
   Southeast Minnesota

CITY           SKY/WX    TMP DP  RH WIND       PRES   REMARKS
ROCHESTER      CLOUDY    46  33  60 NW25G37   29.80S
RED WING       CLOUDY    48  28  46 NW15G22   29.80F
STANTON        CLOUDY    49  29  47 NW17G28   29.83S
DODGE CENTER   CLOUDY    46  28  49 NW14G24   29.82F
WINONA         CLOUDY    48  41  76 NW23G29   29.77R
AUSTIN         CLOUDY    46  28  49 NW14G26   29.82F
PRESTON        CLOUDY    46  35  67 NW16G29   29.79S
$$
ABBREVIATIONS USED IN REMARKS
   TC - TEMPERATURES IN CELSIUS
  WCI - WIND CHILL INDEX
   HX - HEAT INDEX
  VSB - VISIBILITY
$$




USA.gov is the U.S. government's official web portal to all federal, state and local government web resources and services.